IRIDIUM 57 [-] (25273 NORAD) Tracking and Keplerian Element Data

This shows tracking and keplerian element data for the satellite.

Feedback or suggestion? Click here.




ElementValue
Catalog25273
NameIRIDIUM 57 [-]
Epoch Orbit6256
Epoch Day198.86228753
Epoch Year2018
RAAN121.9836
Inclination86.3984
Eccentricity0.0002156
Argument of Perigee85.409
Mean Anonmoly274.7352
Mean Motion14.34312065
Decay Rate3.1E-07
L11 25273U 98019B 18198.86228753 .00000031 00000-0 39538-5 0 9991
L22 25273 86.3984 121.9836 0002156 85.4090 274.7352 14.34312065 62567

Live tracking and technical data element details for IRIDIUM 57 [-] (NORAD 25273). IRIDIUM 57 [-] can be tracked NOW for your location showing map with azimuth and elevation plus other details from your city location.

Track the satellite on the map from your city or location and see movement details for azimuth, elevation, latitude, longitude, range, height, and movement on the map or in text.







IsCatalogInMostPopularTable: catalog: 25273, numindb: 35
Update: records affected: 1



GetName: 25273 IRIDIUM 57 [-]

Hit Count: updated at: Fri, 20 Jul 2018 06:53:14 GMT